Tracking 28096 objects as of 28-Sep-2023
HD Live streaming from Space Station
objects crossing your sky now

STARLINK-1343

Track STARLINK-1343 now!
10-day predictions
STARLINK-1343 is classified as:


NORAD ID: 45584
Int'l Code: 2020-025BF
Perigee: 346.1 km
Apogee: 347.6 km
Inclination: 53.0 °
Period: 91.3 minutes
Semi major axis: 6717 km
RCS: Unknown
Launch date: April 22, 2020
Source: United States (US)
Launch site: AIR FORCE EASTERN TEST RANGE (AFETR)
Your satellite tracking list
Your tracking list is empty




NASA's NSSDC Master Catalog

Two Line Element Set (TLE):
1 45584U 20025BF  23270.65995318  .00008879  00000-0  58186-4 0  9999
2 45584  53.0357  50.8488 0001108 119.5301 240.5829 15.76727804191260
Source of the keplerian elements: AFSPC